Tracking 30070 objects as of 16-Jan-2025
HD Live streaming from Space Station
objects crossing your sky now

OPS 5712 (P/L 152)

Track OPS 5712 (P/L 152) now!
10-day predictions
OPS 5712 (P/L 152) is classified as:


NORAD ID: 2873
Int'l Code: 1967-053G
Perigee: 903.1 km
Apogee: 910.2 km
Inclination: 70.0 °
Period: 103.0 minutes
Semi major axis: 7277 km
RCS: 0.648 m2 (medium)
Launch date: May 31, 1967
Source: United States (US)
Launch site: AIR FORCE WESTERN TEST RANGE (AFWTR)
Your satellite tracking list
Your tracking list is empty




NASA's NSSDC Master Catalog

Two Line Element Set (TLE):
1 02873U 67053G   25015.61042716  .00000154  00000-0  14516-3 0  9991
2 02873  69.9743  82.4011 0004851 120.6274 349.1350 13.98346062936157
Source of the keplerian elements: AFSPC